Wind_Speed
2 1 3 2 3 1 2 4 5 4 4 6 7 3 7 5 2 7 7 4 3 3 3 8 10 8 10 11 11 10 9 9 10 11 10 10 9 8 8 7 6 6 6
4 6 3 2 2 2 3 6 5 2 6 3 2 2 2 1 3 5 5 1 0 3 2 4 6 9 8 9 11 11 10 9 9 10 12 9 9 9 9 8 7 8 8
6 3 7 6 5 2 5 5 7 2 4 3 1 0 2 2 3 2 3 4 1 2 2 1 4 5 7 11 9 11 11 9 8 9 11 12 12 11 10 9 8 8 8
6 8 5 7 10 6 6 7 10 7 8 4 3 3 4 3 3 2 2 1 2 2 1 3 2 2 3 7 10 12 9 9 12 10 10 12 12 11 11 11 11 10 9
9 6 4 7 8 8 7 8 5 3 2 7 3 5 5 6 6 5 4 6 4 1 2 1 1 2 4 7 8 10 12 12 13 14 14 11 11 11 10 11 11 12 12
11 10 8 8 10 8 8 4 4 2 1 4 7 7 6 3 6 3 7 4 3 5 6 3 2 2 4 5 7 8 9 11 14 13 13 13 13 12 13 13 13 14 13
13 12 10 9 9 6 3 5 3 6 7 3 4 4 6 3 7 4 8 5 2 3 1 2 2 2 2 2 3 5 8 10 11 11 12 14 14 15 15 15 15 15 14
14 12 10 9 11 11 8 7 7 3 9 5 2 7 8 8 7 11 8 1 1 2 3 5 4 7 7 5 1 3 4 6 8 8 9 10 12 14 15 15 15 16 17
13 13 11 11 13 15 13 10 6 9 10 6 6 5 5 5 11 11 6 4 3 6 4 4 6 6 4 1 3 4 2 2 3 6 8 10 12 13 14 14 15 14 16
16 14 13 14 14 16 14 10 7 12 12 11 10 6 6 8 7 9 11 7 4 1 2 3 3 9 7 8 8 6 6 5 4 4 5 7 8 10 12 14 16 16 18
20 18 15 17 19 16 13 11 8 11 15 13 11 12 14 11 8 11 12 11 7 7 6 4 6 3 6 5 7 8 8 7 6 7 8 8 10 10 10 10 11 13 15
21 20 16 16 13 15 13 12 10 10 15 14 13 13 11 15 12 9 8 7 4 7 12 9 9 8 6 6 6 7 9 9 7 11 15 17 16 12 11 12 12 12 12
24 23 19 16 16 16 14 13 12 13 15 18 15 13 12 11 7 8 8 7 5 5 7 12 15 15 11 12 10 9 8 10 11 12 16 17 16 12 11 11 12 14 14
24 22 20 18 18 16 16 16 14 13 14 17 18 18 15 14 13 11 10 9 10 8 8 8 7 14 14 13 14 12 11 12 14 16 16 13 14 11 11 12 11 12 13
24 22 19 18 19 18 17 17 16 14 14 14 17 18 18 17 16 16 13 11 11 11 12 8 6 6 8 10 13 14 13 16 17 15 13 12 13 12 13 14 15 15 14
25 24 21 21 18 19 17 16 18 16 17 16 14 16 15 21 19 19 18 17 13 10 9 7 8 4 4 7 9 14 16 15 16 17 17 17 18 15 16 18 18 18 18
29 29 27 26 23 22 20 19 19 21 19 17 15 14 12 16 21 24 20 17 16 15 15 13 11 12 13 13 14 15 17 18 17 19 19 21 20 20 22 22 21 20 23
35 34 31 29 26 26 25 23 22 23 25 24 18 15 14 17 19 21 21 21 17 16 17 16 15 16 18 15 16 18 17 18 22 22 21 19 20 22 23 24 22 24 23
43 40 35 34 34 30 28 27 26 25 27 24 23 19 15 18 21 19 17 19 19 18 14 16 18 19 20 19 20 22 18 20 21 17 19 23 26 25 25 26 26 26 24
44 45 44 41 36 33 33 32 30 29 28 26 26 21 20 22 21 21 21 21 18 18 16 19 16 21 20 21 24 26 27 25 28 26 24 22 21 23 26 29 32 32 31
47 45 43 43 40 38 37 36 34 32 31 28 27 28 21 20 21 19 18 20 23 21 24 25 22 22 23 24 25 23 22 22 23 20 19 21 22 21 22 20 18 18 17
45 46 48 45 44 41 38 38 35 36 35 31 28 30 26 21 21 21 21 25 25 24 25 25 22 25 26 20 21 19 21 22 22 22 24 22 19 19 18 17 16 16 17
44 44 46 45 43 41 39 37 35 36 37 29 27 30 27 23 21 23 25 26 28 24 25 21 20 22 26 22 21 21 23 23 24 23 25 29 24 26 24 20 20 22 26
42 41 39 39 40 40 36 32 34 35 32 30 24 26 30 24 23 22 24 28 27 25 22 17 22 22 24 21 21 21 22 24 25 24 26 32 27 27 25 24 25 27 25
39 38 34 33 33 31 27 25 27 31 30 26 24 23 27 25 21 21 23 24 22 22 21 21 22 23 20 20 21 22 21 24 24 23 25 22 23 27 26 25 27 26 23
34 33 31 30 29 26 22 24 26 29 27 19 22 24 25 25 21 18 24 22 23 23 22 22 21 18 19 20 21 23 21 20 22 20 21 23 23 23 29 29 26 24 27
Wind_Direction
174 307 269 58 53 40 344 18 350 2 27 94 92 105 13 31 73 8 327 319 29 54 196 208 211 204 199 192 198 204 204 208 210 204 199 211 214 207 203 204 220 231 231
253 262 254 230 250 316 300 333 335 277 128 110 84 347 251 260 322 307 314 287 275 10 42 203 216 216 207 201 203 207 206 214 220 217 219 219 229 230 219 224 233 244 247
271 303 259 233 216 267 257 302 319 169 215 261 141 70 103 82 258 353 20 202 240 317 31 105 201 211 227 225 211 216 215 224 224 226 227 226 230 227 230 239 244 250 255
251 283 291 245 226 249 250 286 293 259 216 205 246 213 201 244 159 60 88 120 119 125 7 17 93 126 203 228 228 228 219 227 232 233 233 232 235 230 234 243 247 249 255
248 253 265 224 241 271 273 304 289 203 297 298 244 205 169 133 142 113 144 123 125 77 174 198 188 266 244 232 231 238 236 236 237 236 239 239 241 240 242 246 251 255 258
259 261 258 283 248 254 293 271 194 259 353 114 155 169 151 127 144 131 156 148 152 76 142 143 248 273 276 232 231 238 240 238 239 242 245 247 247 250 253 255 258 261 262
248 257 262 279 236 246 276 228 248 306 169 140 106 184 185 140 164 164 171 172 236 290 22 339 152 339 272 265 256 244 238 241 242 242 237 244 248 250 252 254 257 260 265
248 253 261 278 231 231 232 223 259 202 164 157 239 189 172 157 149 167 180 354 138 319 324 339 307 296 278 263 275 304 273 253 253 253 256 257 262 264 264 264 262 264 264
247 247 259 258 233 225 235 230 251 179 169 158 113 160 153 173 172 179 193 145 67 61 14 335 25 23 48 39 331 343 307 280 265 263 263 262 260 261 265 265 266 266 267
238 243 249 252 231 229 229 236 250 196 187 183 162 135 168 187 176 190 195 196 173 108 343 250 23 35 42 44 42 36 24 18 2 332 310 292 279 271 267 263 266 265 261
235 236 247 239 235 230 227 237 228 205 204 199 191 180 189 191 178 183 198 204 216 241 237 273 256 1 16 19 20 24 21 3 7 19 5 338 311 294 284 280 276 271 270
232 234 242 231 228 232 235 234 224 221 211 212 210 206 195 184 179 178 170 173 207 238 241 237 258 273 294 329 339 343 353 352 357 350 353 350 340 310 296 289 285 283 281
230 232 235 236 235 230 236 228 225 228 221 221 222 221 218 217 186 186 199 208 218 212 237 232 262 252 268 283 286 306 314 322 325 327 339 342 341 336 312 303 299 294 290
235 233 244 242 234 229 231 230 232 225 222 219 227 232 235 231 228 217 220 241 238 252 261 283 262 241 257 271 272 283 293 299 307 317 321 336 333 324 324 319 319 317 305
229 239 247 236 229 231 229 228 229 227 225 225 230 233 231 226 234 237 233 234 247 255 268 252 238 254 244 264 262 267 280 298 302 309 311 316 324 307 307 305 305 310 309
226 232 238 227 224 226 234 237 231 225 222 218 219 228 233 231 233 235 238 237 239 257 254 239 289 242 278 275 269 277 288 298 304 305 302 300 298 308 306 300 297 297 295
224 232 237 234 230 232 237 244 242 237 232 221 224 230 230 228 235 238 245 255 256 253 265 267 268 265 286 290 290 295 300 300 307 301 293 293 285 295 301 292 285 290 290
229 233 236 236 237 237 240 245 249 244 240 228 225 233 243 236 235 234 247 253 255 250 257 272 274 279 281 283 283 286 288 287 289 297 293 281 281 290 292 288 284 279 283
229 233 234 236 238 239 242 246 251 254 252 241 232 235 245 255 255 251 248 255 250 257 265 273 286 289 294 289 286 288 287 291 288 291 289 288 288 289 285 283 285 287 284
227 230 236 241 242 244 249 252 253 257 257 246 238 239 245 250 258 260 257 248 253 257 269 272 278 286 290 296 294 290 292 291 293 299 300 299 298 292 289 286 287 285 281
231 233 235 239 243 246 250 253 258 262 261 252 245 238 245 254 257 256 258 251 248 261 259 273 269 282 296 301 299 295 291 295 299 302 305 306 305 307 303 300 299 297 290
233 235 237 239 243 247 253 258 261 263 264 256 249 241 240 256 250 246 248 248 254 261 264 265 274 277 299 303 297 299 299 301 307 308 317 310 308 308 308 294 294 292 291
234 236 238 240 244 250 256 261 262 263 264 261 257 249 242 253 250 248 251 261 258 260 269 258 282 277 295 294 296 291 293 295 297 303 303 303 303 305 306 302 301 305 303
236 238 239 242 247 251 256 260 260 262 262 261 257 249 245 253 247 247 261 258 266 270 275 283 289 287 289 289 285 292 293 294 297 301 303 302 303 304 305 306 308 308 309
237 240 241 243 245 249 250 252 255 258 258 263 255 252 242 249 244 254 260 260 272 272 276 282 286 286 281 286 293 295 296 301 299 301 302 304 312 307 306 305 308 313 313
236 237 238 243 247 250 251 250 251 254 250 257 249 247 243 248 240 267 263 263 267 273 278 283 291 285 289 292 290 290 293 294 302 306 315 309 307 310 310 313 309 309 314
Height
1579 1579 1581 1581 1582 1583 1583 1583 1582 1581 1581 1581 1581 1580 1578 1577 1578 1578 1577 1578 1578 1577 1578 1578 1580 1581 1581 1582 1584 1585 1586 1587 1589 1589 1590 1591 1591 1591 1591 1592 1593 1593 1593
1578 1579 1579 1580 1581 1581 1582 1582 1581 1580 1581 1581 1580 1580 1579 1578 1577 1577 1577 1577 1578 1578 1578 1578 1579 1580 1580 1582 1583 1584 1584 1586 1588 1589 1589 1590 1591 1591 1591 1592 1592 1592 1592
1577 1577 1578 1578 1579 1579 1580 1580 1580 1580 1579 1579 1579 1579 1578 1578 1577 1577 1576 1577 1577 1578 1578 1578 1579 1579 1579 1581 1581 1583 1584 1585 1586 1588 1589 1589 1589 1590 1591 1591 1591 1591 1591
1576 1576 1576 1576 1577 1578 1578 1578 1578 1577 1577 1577 1577 1577 1576 1576 1576 1577 1577 1577 1578 1578 1579 1579 1579 1580 1580 1581 1582 1582 1583 1583 1585 1586 1587 1587 1588 1588 1589 1590 1590 1590 1590
1574 1575 1575 1575 1575 1576 1576 1576 1575 1575 1576 1575 1575 1575 1575 1575 1576 1576 1577 1577 1578 1579 1579 1580 1580 1580 1580 1580 1581 1580 1581 1582 1583 1584 1585 1585 1586 1587 1587 1588 1589 1589 1589
1572 1573 1573 1573 1573 1574 1574 1574 1574 1574 1574 1573 1573 1574 1575 1575 1576 1576 1576 1576 1577 1577 1578 1579 1579 1579 1579 1578 1578 1579 1579 1579 1580 1581 1582 1584 1584 1584 1585 1586 1587 1588 1588
1570 1571 1571 1571 1571 1572 1572 1572 1573 1573 1573 1573 1573 1574 1575 1575 1576 1576 1576 1576 1577 1577 1578 1578 1579 1578 1576 1577 1577 1577 1577 1577 1578 1578 1580 1580 1581 1581 1581 1583 1583 1584 1585
1568 1568 1568 1568 1569 1569 1570 1570 1570 1569 1571 1571 1572 1572 1573 1576 1576 1576 1576 1576 1577 1577 1577 1577 1577 1577 1577 1577 1576 1576 1576 1576 1576 1577 1577 1579 1578 1579 1579 1580 1580 1581 1581
1565 1566 1566 1566 1566 1567 1567 1568 1569 1569 1570 1570 1570 1571 1572 1573 1574 1575 1576 1575 1575 1576 1577 1576 1576 1576 1576 1576 1576 1575 1575 1575 1575 1576 1576 1576 1576 1576 1577 1576 1577 1577 1578
1561 1562 1563 1563 1564 1564 1565 1567 1567 1568 1568 1568 1568 1569 1570 1571 1572 1574 1575 1575 1576 1576 1576 1577 1577 1576 1576 1576 1576 1575 1575 1575 1575 1575 1575 1574 1574 1574 1574 1574 1573 1573 1573
1558 1559 1560 1560 1560 1562 1563 1565 1566 1566 1567 1568 1568 1566 1565 1567 1569 1571 1571 1573 1574 1574 1575 1576 1576 1576 1576 1575 1576 1576 1575 1575 1574 1574 1573 1573 1572 1571 1571 1571 1571 1570 1570
1554 1555 1556 1557 1558 1559 1561 1563 1564 1564 1565 1566 1567 1568 1567 1566 1566 1569 1570 1572 1572 1572 1572 1573 1573 1573 1574 1574 1574 1574 1574 1574 1573 1573 1572 1571 1570 1569 1568 1568 1567 1567 1567
1548 1551 1553 1554 1556 1557 1558 1560 1561 1563 1564 1565 1567 1568 1568 1569 1568 1568 1570 1571 1571 1571 1570 1571 1571 1571 1571 1572 1572 1572 1572 1572 1572 1571 1570 1569 1567 1566 1565 1565 1564 1564 1564
1545 1547 1549 1551 1554 1555 1556 1558 1560 1562 1563 1565 1566 1566 1568 1569 1569 1568 1568 1569 1569 1569 1569 1569 1569 1569 1569 1570 1570 1570 1570 1570 1569 1569 1567 1566 1565 1564 1563 1563 1562 1561 1561
1541 1544 1545 1548 1550 1552 1554 1556 1558 1561 1562 1563 1564 1564 1566 1566 1567 1567 1567 1567 1568 1567 1567 1567 1567 1568 1568 1568 1568 1568 1568 1568 1567 1566 1564 1564 1563 1562 1561 1560 1559 1558 1557
1537 1539 1541 1544 1547 1550 1552 1553 1555 1556 1557 1558 1560 1561 1562 1564 1565 1565 1565 1565 1565 1566 1565 1565 1566 1566 1567 1566 1567 1566 1565 1565 1563 1562 1561 1560 1560 1559 1558 1557 1555 1554 1553
1531 1534 1537 1540 1543 1545 1547 1549 1551 1552 1554 1556 1556 1557 1558 1560 1562 1564 1565 1566 1565 1564 1565 1565 1564 1564 1564 1564 1564 1563 1562 1561 1560 1559 1557 1556 1555 1554 1553 1551 1549 1548 1547
1525 1528 1531 1535 1538 1540 1543 1544 1546 1547 1547 1549 1552 1553 1554 1556 1557 1559 1562 1562 1564 1561 1560 1563 1563 1563 1562 1561 1560 1558 1557 1555 1554 1554 1552 1551 1550 1549 1546 1545 1543 1542 1541
1519 1523 1525 1528 1531 1535 1538 1540 1541 1542 1542 1545 1549 1551 1552 1553 1553 1555 1557 1558 1559 1560 1559 1559 1560 1560 1559 1557 1556 1555 1553 1551 1550 1548 1547 1546 1544 1541 1540 1539 1537 1535 1533
1512 1516 1519 1522 1526 1530 1533 1534 1535 1537 1538 1541 1543 1545 1547 1549 1550 1551 1553 1555 1556 1557 1557 1556 1554 1555 1554 1553 1552 1550 1548 1546 1543 1542 1539 1538 1537 1534 1533 1531 1528 1526 1525
1504 1508 1513 1516 1520 1523 1525 1526 1529 1531 1532 1534 1537 1540 1542 1544 1546 1548 1548 1550 1549 1551 1552 1552 1550 1551 1548 1545 1545 1543 1541 1539 1538 1536 1533 1532 1529 1527 1524 1522 1520 1518 1518
1496 1500 1504 1508 1511 1515 1519 1521 1524 1524 1525 1529 1531 1534 1538 1540 1540 1542 1542 1542 1545 1546 1546 1545 1546 1545 1544 1540 1539 1538 1536 1533 1531 1530 1526 1526 1525 1523 1521 1519 1518 1516 1514
1487 1491 1495 1500 1504 1508 1511 1514 1518 1518 1519 1522 1526 1529 1532 1534 1535 1536 1538 1539 1539 1539 1541 1540 1539 1538 1536 1537 1534 1532 1530 1528 1526 1525 1521 1518 1519 1516 1515 1512 1511 1509 1506
1478 1482 1488 1493 1497 1500 1505 1508 1511 1511 1514 1517 1519 1522 1526 1528 1529 1531 1533 1533 1534 1534 1535 1534 1533 1532 1531 1531 1528 1526 1524 1521 1519 1519 1517 1511 1512 1509 1507 1505 1502 1499 1496
1471 1475 1481 1485 1489 1493 1498 1501 1503 1504 1506 1509 1512 1516 1519 1522 1525 1527 1529 1530 1530 1530 1531 1530 1528 1526 1525 1525 1523 1520 1518 1516 1513 1511 1511 1506 1505 1501 1499 1496 1495 1492 1490
1462 1468 1473 1477 1482 1487 1491 1493 1495 1498 1500 1503 1505 1508 1512 1515 1519 1520 1522 1524 1524 1524 1525 1525 1522 1521 1520 1518 1517 1515 1512 1510 1508 1505 1506 1502 1499 1496 1490 1487 1487 1485 1482